TimeMST,TemperatureF,Dew PointF,Humidity,Sea Level PressureIn,VisibilityMPH,Wind Direction,Wind SpeedMPH,Gust SpeedMPH,PrecipitationIn,Events,Conditions,WindDirDegrees,DateUTC
12:53 AM,27.0,23.0,85,30.52,6.0,SSE,6.9,-,N/A,,Clear,150,2013-02-16 07:53:00
1:53 AM,27.0,23.0,85,30.52,7.0,SE,8.1,-,N/A,,Clear,140,2013-02-16 08:53:00
2:53 AM,25.0,21.0,85,30.51,8.0,SSE,8.1,-,N/A,,Clear,150,2013-02-16 09:53:00
3:53 AM,25.0,21.0,85,30.50,9.0,ESE,8.1,-,N/A,,Clear,120,2013-02-16 10:53:00
4:53 AM,26.1,21.0,81,30.48,8.0,SSE,4.6,-,N/A,,Clear,160,2013-02-16 11:53:00
5:53 AM,25.0,19.9,81,30.48,8.0,ESE,5.8,-,N/A,,Clear,110,2013-02-16 12:53:00
6:53 AM,24.1,19.9,84,30.48,8.0,ESE,5.8,-,N/A,,Clear,120,2013-02-16 13:53:00
7:53 AM,24.1,19.9,84,30.48,7.0,ESE,6.9,-,N/A,,Clear,110,2013-02-16 14:53:00
8:53 AM,28.0,21.0,75,30.46,10.0,SSE,8.1,-,N/A,,Clear,150,2013-02-16 15:53:00
9:53 AM,32.0,21.9,66,30.44,10.0,ESE,4.6,-,N/A,,Clear,110,2013-02-16 16:53:00
10:53 AM,33.1,24.1,70,30.42,9.0,WNW,8.1,-,N/A,,Clear,290,2013-02-16 17:53:00
11:53 AM,35.1,25.0,67,30.41,7.0,WNW,5.8,-,N/A,,Clear,300,2013-02-16 18:53:00
12:53 PM,37.0,26.1,65,30.36,7.0,NNW,5.8,-,N/A,,Clear,340,2013-02-16 19:53:00
1:53 PM,36.0,25.0,64,30.32,7.0,WNW,6.9,-,N/A,,Clear,290,2013-02-16 20:53:00
2:53 PM,37.0,26.1,65,30.29,7.0,WNW,4.6,-,N/A,,Clear,290,2013-02-16 21:53:00
3:53 PM,37.0,26.1,65,30.26,7.0,NW,6.9,-,N/A,,Clear,310,2013-02-16 22:53:00
4:53 PM,35.1,27.0,72,30.23,7.0,WNW,6.9,-,N/A,,Scattered Clouds,290,2013-02-16 23:53:00
5:53 PM,33.1,25.0,72,30.23,6.0,NW,6.9,-,N/A,,Haze,320,2013-02-17 00:53:00
6:53 PM,30.0,25.0,82,30.22,6.0,NW,3.5,-,N/A,,Haze,320,2013-02-17 01:53:00
7:53 PM,28.9,25.0,85,30.19,4.0,Calm,Calm,-,N/A,,Mostly Cloudy,0,2013-02-17 02:53:00
8:53 PM,28.9,24.1,82,30.15,4.0,Calm,Calm,-,N/A,,Haze,0,2013-02-17 03:53:00
9:53 PM,28.0,23.0,81,30.13,4.0,Calm,Calm,-,N/A,,Haze,0,2013-02-17 04:53:00
10:53 PM,27.0,23.0,85,30.12,4.0,Calm,Calm,-,N/A,,Overcast,0,2013-02-17 05:53:00
11:53 PM,27.0,24.1,89,30.07,4.0,South,3.5,-,N/A,,Overcast,190,2013-02-17 06:53:00